Location: Grodei
(46.5084°N, 7.3954°E)
Time: 23:37:07
(UTC+00:00)

Daily predictions for brighter satellites

Satellite Brightness Start Highest point End
(mag) Time Altitude Azimuth Time Altitude Azimuth Time Altitude Azimuth
USA 234 3.4 16:06:03 10° ESE 16:12:26 59° NNE 16:18:49 10° NW
SL-24 R/B - RUBIN 2 4.2 16:09:53 10° NNW 16:14:07 35° NE 16:18:07 10° ESE
NOSS 3-1 (A) 4.2 16:07:24 10° NW 16:14:54 86° NE 16:23:42 10° SE
ISS -3.4 16:12:13 10° WNW 16:15:32 48° NNE 16:18:49 10° E
NOAA 6 4.4 16:11:48 10° SE 16:16:37 42° ENE 16:21:27 10° N
NOSS 2-2 (E) 4.5 16:14:33 10° NNW 16:19:37 56° NE 16:26:40 10° SE
Cosmos 1408 Rocket 3.8 16:15:17 10° NNW 16:19:39 75° W 16:24:02 10° S
Cosmos 1666 4.3 16:20:16 10° NNE 16:22:21 14° ENE 16:24:27 10° ESE
Cosmos 2026 Rocket 4.2 16:20:53 10° N 16:26:46 46° ENE 16:32:34 10° SSE
Cosmos 1743 Rocket 3.5 16:24:39 10° N 16:28:59 74° E 16:33:18 10° SSE
Cosmos 2322 Rocket 3.9 16:26:03 10° N 16:29:00 14° NE 16:31:56 10° ENE
USA 305 4.1 16:25:16 10° WNW 16:29:00 29° N 16:32:40 11° ENE
CZ-4B R/B 2.8 16:25:11 10° SSE 16:29:13 84° ENE 16:33:03 10° NNW
Cosmos 1933 3.6 16:26:18 10° SSE 16:30:12 48° E 16:34:06 10° NNE
Cosmos 1697 Rocket 2.6 16:25:04 10° NNW 16:30:42 78° ENE 16:36:20 10° SSE
Cosmos 1980 Rocket 2.4 16:29:56 10° NNW 16:35:26 47° NE 16:40:51 10° SE
SL-08 R/B 3.6 16:30:54 10° N 16:35:37 71° WNW 16:40:13 10° SSW
Okean O Rocket 3.0 16:33:16 10° ESE 16:36:22 19° ENE 16:39:28 10° NNE
Cosmos 540 Rocket 3.6 16:32:41 10° S 16:37:39 56° ESE 16:42:39 10° NNE
FengYun 1-2 T 4.2 16:32:10 10° SSE 16:37:44 79° ENE 16:43:17 10° NNW
Cosmos 2369 3.7 16:34:08 10° NNW 16:39:51 63° ENE 16:45:31 10° SE
SJ 16-02 4.4 16:37:04 10° NW 16:39:54 17° W 16:42:45 10° SW
Cosmos 1666 Rocket 4.4 16:36:21 10° NNE 16:40:13 28° ENE 16:44:01 10° SE
Cosmos 1809 Rocket 4.4 16:38:13 10° N 16:44:18 68° ENE 16:50:21 10° SSE
Meteor PRIRODA 4.3 16:41:57 10° S 16:45:32 57° W 16:49:06 10° NNW
Cosmos 1812 3.7 16:42:20 10° SSE 16:45:36 27° E 16:48:49 10° NNE
NOAA 12 4.4 16:40:57 10° S 16:46:16 74° WSW 16:51:36 10° NNW
ERBS 4.4 16:45:47 10° NW 16:47:44 15° NNW 16:49:40 10° NNE
SL-16 R/B 3.4 16:43:39 10° N 16:47:57 21° NE 16:51:23 13° E
CORIOLIS 4.1 16:44:22 10° SSE 16:49:45 73° ENE 16:55:11 10° N
Cosmos 2082 Rocket 2.5 16:46:04 10° S 16:51:31 50° ESE 16:56:54 10° NE
Radarsat 4.5 16:48:28 10° SSE 16:53:39 77° ENE 16:58:52 10° NNW
Meteor 1-25 Rocket 4.4 16:50:14 10° NNW 16:55:49 78° W 17:01:25 10° S
Cosmos 468 Rocket 4.4 16:51:42 10° SSW 16:56:48 63° WNW 17:02:00 10° NNE
Cosmos 1500 Rocket 4.5 16:52:44 10° NNW 16:57:03 53° W 17:01:19 10° S
Cosmos 2333 Rocket 4.2 16:59:34 10° NNE 17:00:15 10° NNE 17:00:43 10° NNE
USA 306 4.0 16:57:39 10° WNW 17:01:27 30° N 17:03:34 20° NE
MOS 1-B Rocket 4.3 16:56:09 10° NNE 17:01:56 50° E 17:08:31 10° S
CZ-4B DEB 4.1 16:57:06 10° SSE 17:02:37 80° ENE 17:08:07 10° NNW
Cosmos 1898 Rocket 4.3 16:57:32 10° NNW 17:02:40 55° WSW 17:07:43 10° S
Cosmos 2278 3.8 16:57:52 10° NNW 17:03:31 56° ENE 17:09:05 10° SE
Cosmos 1602 4.0 17:00:21 10° NNW 17:04:11 69° W 17:08:02 10° S
Cosmos 1939 Rocket 3.4 17:00:18 10° S 17:04:21 62° WSW 17:08:25 10° NNW
Sich 1 2.9 17:00:03 10° N 17:04:22 86° E 17:08:41 10° S
Cosmos 1818 4.0 16:59:15 10° NNW 17:04:26 40° NE 17:08:58 13° ESE
ARGOS 3.5 17:01:04 10° SE 17:06:04 40° ENE 17:11:04 10° N
Cosmos 1805 Rocket 3.9 17:04:43 10° NNW 17:09:01 66° W 17:13:19 10° S
Cosmos 1833 Rocket 3.2 17:05:53 10° SW 17:11:25 59° WNW 17:17:01 10° NNE
COSMOS 2406 3.5 17:09:35 10° SW 17:15:19 70° WNW 17:21:03 10° NNE
GEOS 3 Rocket 4.5 17:13:44 22° ENE 17:15:54 30° NE 17:20:23 10° NNW
NOSS 2-2 (C) 4.5 17:11:46 10° NW 17:17:02 82° SW 17:24:27 10° SSE
deb Chang Zheng 4 3.7 17:13:13 10° SE 17:17:22 49° ENE 17:21:33 10° N
USA 307 3.9 17:16:54 10° NW 17:20:44 31° N 17:21:59 26° NE
Cosmos 2219 Rocket 4.2 17:19:55 10° NNE 17:20:35 11° NNE 17:20:35 11° NNE
USA 267 3.4 17:16:34 18° NE 17:21:36 70° NNW 17:28:05 10° WSW
Cosmos 1782 3.2 17:18:50 10° SSW 17:22:47 65° W 17:26:46 10° N
Cosmos 2208 Rocket 4.3 17:21:06 10° S 17:26:16 50° ESE 17:29:27 23° NE
CZ-2C R/B 2.6 17:21:53 10° NNE 17:27:00 55° E 17:32:03 10° S
Cosmos 1515 Rocket 4.5 17:23:38 10° SSE 17:26:52 28° ESE 17:26:52 28° ESE
SL-08 RB Rocket 4.1 17:24:06 10° SE 17:28:25 40° ENE 17:32:43 10° N
CZ-2D R/B 3.5 17:24:58 10° S 17:28:47 69° WSW 17:32:37 10° NNW
Cosmos 1500 3.9 17:25:13 10° NNW 17:28:53 53° W 17:32:30 10° S
Cosmos 2150 Rocket 4.3 17:25:42 10° N 17:30:35 41° ENE 17:33:12 24° ESE
CZ-4C R/B 2.9 17:24:01 10° NW 17:31:15 85° NE 17:39:44 10° SE
Meteor 2-6 Rocket 4.2 17:25:57 10° S 17:31:35 58° E 17:36:56 11° NNE
H-2A R/B 2.1 17:26:50 10° SSE 17:32:00 81° WSW 17:37:04 10° NNW
Meteor 2-16 Rocket 4.4 17:26:04 10° N 17:32:13 83° E 17:38:22 10° S
CZ-4B R/B 3.0 17:27:59 10° SSE 17:33:24 80° ENE 17:38:45 10° NNW
PAYLOAD B 4.5 17:29:40 10° S 17:35:15 72° WSW 17:40:53 10° NNW
Cosmos 841 Rocket 3.9 17:30:31 10° SW 17:35:37 62° WNW 17:40:21 12° NNE
YAOGAN 3 4.4 17:34:04 10° SSE 17:38:23 69° ENE 17:42:44 10° N
USA 308 3.7 17:39:29 10° NW 17:43:25 35° NNE 17:43:39 34° NNE
COSMO-SKYMED 1 2.4 17:41:39 23° NNE 17:44:18 80° ESE 17:48:38 10° S
Lacrosse 5 rocket 1.3 17:40:45 10° NW 17:44:38 57° NE 17:44:49 56° NE
Cosmos 921 Rocket 3.1 17:41:30 10° S 17:45:22 49° ESE 17:45:22 49° ESE
Cosmos 1125 Rocket 3.6 17:40:43 10° NNW 17:45:51 50° ENE 17:47:31 36° ESE
COSMOS 2455 3.3 17:42:18 10° SW 17:48:14 60° NW 17:52:28 20° NNE
Cosmos 2279 Rocket 4.1 17:43:43 10° SSW 17:49:56 79° W 17:56:11 10° N
Cosmos 1633 Rocket 3.3 17:47:05 10° NNW 17:51:26 67° W 17:55:47 10° S
ATLAS 2AS CENTAUR R/B 4.2 17:46:24 10° NW 17:51:55 21° N 17:54:01 19° NNE
Meteor 2-15 Rocket 4.5 17:46:02 10° SSE 17:51:59 54° E 17:55:52 22° NNE
Helios 1B 4.5 17:49:55 27° NNE 17:52:14 88° WNW 17:56:34 10° SSW
ISS -2.6 17:49:07 10° WNW 17:52:20 40° SW 17:53:03 35° S
Cosmos 2360 Rocket 3.3 17:48:35 10° N 17:52:12 26° NNE 17:52:12 26° NNE
YAOGAN 1 4.3 17:56:49 19° N 17:56:49 19° N 17:58:12 10° N
Cosmos 2266 Rocket 3.9 17:47:56 10° N 17:54:18 67° ENE 18:00:41 10° SSE
Cosmos 44 Rocket 3.1 17:49:28 10° NW 17:54:25 80° NE 17:56:04 42° SE
USA 234 3.9 17:49:07 10° SSE 17:55:30 55° SW 18:01:54 10° WNW
Meteor 1-10 Rocket 4.1 17:51:32 10° S 17:57:15 69° E 18:00:37 25° NNE
Meteor 1-11 Rocket 3.7 17:52:31 10° N 17:58:07 61° ENE 18:03:46 10° SSE
Cosmos 1666 3.8 17:54:35 10° NNW 17:58:08 44° W 18:01:40 10° SSW
Cosmos 1151 Rocket 3.9 17:56:42 10° SSW 18:00:55 49° WNW 18:04:41 13° N
USA 305 3.8 18:05:31 10° NW 18:08:40 38° NNW 18:08:40 38° NNW
Cosmos 1900 4.3 18:06:09 10° SW 18:11:02 77° NW 18:11:47 62° N
Okean O Rocket 2.3 18:07:58 10° S 18:12:19 54° W 18:16:43 10° NNW
Feng Yun 1-1 Rocket 4.3 18:07:30 10° SSE 18:13:26 90° ESE 18:19:20 10° NNW
Cosmos 2322 Rocket 2.3 18:08:41 10° NNW 18:13:54 57° NE 18:13:54 57° NE
Meteor 2-15 4.4 18:08:32 10° S 18:14:38 82° W 18:20:46 10° N
Landsat 5 3.7 18:16:56 65° W 18:16:56 65° W 18:20:45 10° SSW
Cosmos 1980 Rocket 4.1 18:14:21 10° NW 18:19:12 30° WSW 18:24:00 10° SSW
Cosmos 1470 Rocket 4.2 18:17:09 10° NNW 18:21:32 56° W 18:25:54 10° S
Spot 2 4.4 18:20:29 37° SSE 18:22:34 88° WSW 18:27:43 10° NNW
SL-16 R/B 2.2 18:27:04 10° NNW 18:32:45 81° WSW 18:33:21 71° S
Cosmos 1655 Rocket 4.5 18:29:26 10° NNW 18:35:44 61° W 18:41:57 10° S
Cosmos 2082 Rocket 3.7 18:30:50 10° WSW 18:35:50 31° NW 18:38:46 20° N
ATLAS CENTAUR R/B 3.8 18:32:07 10° W 18:37:42 27° NNW 18:37:45 27° NNW
CZ-2C R/B 4.1 18:41:34 10° SSW 18:42:01 11° SSW 18:42:01 11° SSW
Cosmos 2333 Rocket 4.1 18:40:59 10° NNW 18:42:44 19° N 18:42:44 19° N
GEOS 3 Rocket 4.3 18:54:52 51° WNW 18:54:52 51° WNW 18:58:50 10° NW
USA 267 4.1 19:03:55 39° N 19:04:03 39° N 19:10:00 10° WNW
Cosmos 2219 Rocket 4.4 19:01:27 10° NNW 19:02:19 14° NNW 19:02:19 14° NNW
Cosmos 2360 Rocket 4.3 19:32:16 10° NW 19:33:59 20° NW 19:33:59 20° NW
ATLAS 2AS CENTAUR R/B 4.5 19:38:21 10° NNW 19:41:27 23° NNW 19:41:27 23° NNW
